Temp_Advection
nan nan nan nan nan nan nan nan nan nan nan nan nan nan nan nan nan nan nan nan nan nan nan nan nan nan nan nan nan nan nan nan nan nan nan nan nan nan nan nan nan nan nan nan nan
nan -1 -1 -1 -1 -0 -0 -1 -0 -0 -0 -0 -0 -0 -0 -1 -1 -2 -0 1 0 0 -0 0 -0 1 -0 -0 0 -0 -0 -1 -0 -0 -0 -0 -0 -0 -0 -0 -0 0 -0 0 nan
nan -1 -1 -1 -1 -1 -1 -0 -0 -0 -0 -0 -0 -0 -0 -0 -2 -1 0 -0 -0 0 0 1 -0 -0 -0 -0 -0 -0 -0 -0 -0 0 -0 -0 -0 -0 -1 -0 -0 -0 -1 -0 nan
nan -0 -0 -1 -1 -1 -1 -1 -0 -0 -0 -0 -0 -0 -0 -0 -1 -0 -0 -0 0 1 1 0 0 -0 -0 -0 -0 -0 -1 -1 -0 0 -1 -0 -0 0 -0 -0 -0 -0 -0 -1 nan
nan -0 0 -0 -0 -1 -1 -1 -1 -0 -0 -0 -0 0 -0 -0 -4 -1 0 -0 1 1 0 -0 -1 -0 -0 -0 -0 -0 -1 -0 -0 -0 -0 -0 -0 -0 -1 -0 0 0 2 -0 nan
nan -0 -0 0 0 0 -0 -1 -1 -1 -0 -0 0 0 1 -1 -2 -0 -0 0 0 -0 -0 -1 -1 -1 -0 -0 -0 -1 -0 -1 -1 -0 0 -0 0 0 -0 0 1 1 1 0 nan
nan -0 -0 -0 -0 -0 0 0 -1 -1 -0 -0 0 1 -1 -5 -0 -0 0 0 1 -1 -1 -1 -1 -1 -0 -0 -0 0 0 -0 -0 -0 -0 -0 0 -0 0 0 0 0 -0 0 nan
nan 0 0 0 -0 -0 -1 -0 -1 -1 -0 0 1 1 -1 -1 0 -0 0 0 0 0 -0 -0 1 0 -0 -0 -1 -0 0 -0 -0 -0 -0 0 0 -1 0 0 -0 -0 -0 -0 nan
nan -0 -0 0 0 -0 -1 -1 -1 -1 -0 0 1 0 -1 -1 -1 -0 -0 0 0 0 1 0 1 1 0 0 -0 -0 -0 -0 -0 -0 0 0 0 0 1 0 -0 -0 -0 -0 nan
nan -0 -1 0 0 -0 0 -0 -0 -0 0 0 0 -0 -2 -0 0 0 -0 1 0 1 2 0 1 0 0 0 -1 -0 -0 -0 -0 0 -0 0 0 0 1 -0 -1 -0 -0 -0 nan
nan -1 -1 -0 -0 -0 -0 -0 -1 -0 -1 -1 -0 -1 -0 0 0 0 0 1 0 1 0 1 0 -0 -1 -0 -0 -0 -0 0 -0 -0 -0 -0 0 0 0 -0 -0 -0 -0 -1 nan
nan -1 -2 -1 -0 -0 -1 -1 -1 -0 -3 -4 -1 -1 -0 0 -0 0 0 -0 1 0 -0 0 -1 -0 -0 -0 0 0 0 -0 -0 -0 0 0 1 0 -0 -0 -1 -1 -0 -1 nan
nan -1 -2 -2 -1 -0 -0 -0 1 2 -1 -3 -1 -1 -1 -0 0 -1 -0 -1 -0 -0 -0 -0 -0 -0 -0 -0 0 0 -0 -0 -0 -0 0 -0 -0 0 -0 -0 0 -0 -0 -0 nan
nan -1 -1 -3 -1 -1 -0 0 1 1 0 -1 -0 -0 -0 -0 -1 -2 -1 -0 -0 -0 -0 -0 -0 -0 0 -0 -0 -0 -0 0 0 -0 0 -0 0 -0 0 0 0 -0 -0 -1 nan
nan 0 -1 -1 -2 -2 -0 -0 0 0 -0 -0 -0 -0 -0 -0 -0 0 -0 1 -1 -0 -0 -0 -0 -0 -0 -0 -0 -1 -0 1 1 0 0 0 0 0 0 -0 -0 -0 -1 -1 nan
nan 0 -0 -1 -1 -1 -2 -0 -0 0 -1 -0 -0 -0 0 -0 -0 0 1 0 -0 -0 0 -0 -0 -0 -0 0 -0 0 -0 -1 -0 0 -0 0 0 -0 -0 -1 -1 -1 -0 -0 nan
nan -0 0 -0 -1 -1 -1 -0 -0 -0 -0 -0 -0 -0 -0 -0 0 0 0 1 1 -0 0 0 0 0 -0 0 0 0 -1 -0 -0 -0 -0 0 -0 -1 -1 -1 -1 -1 -1 -1 nan
nan -0 0 -0 0 -0 -0 -0 -0 -0 -0 -0 -0 -0 0 -0 -0 -0 1 -0 -0 -0 -0 1 0 -0 -0 -0 -0 0 -0 -0 -0 -0 0 0 -1 -0 -1 -0 -0 -1 -1 -0 nan
nan -1 -0 0 -0 -0 -1 0 -0 -0 -0 -0 -0 -0 -0 -0 -0 -0 -0 1 1 0 0 -0 -1 -0 -0 -0 -1 -0 -0 -1 -0 0 -0 -0 -1 -0 0 0 0 0 0 -0 nan
nan -2 -0 -0 -0 0 -0 -0 -1 -0 -0 -0 -0 -0 -0 -0 -0 -0 -0 -1 -1 -1 -1 0 0 -0 0 0 0 -0 -0 -0 0 0 0 -0 -0 0 -0 0 -0 -0 -1 -2 nan
nan -1 -0 -0 -1 -1 -0 -0 -1 -1 -1 -0 -0 -0 -0 -0 -0 -0 -0 -0 -0 -1 -1 -1 1 -0 0 -0 -0 -0 -0 -0 -1 0 0 -0 -0 -0 -0 -0 -0 -1 -3 -2 nan
nan -0 -0 -1 -1 -0 -0 -0 -1 -1 -1 -0 -0 -0 -0 -0 -0 -0 -0 0 -0 -0 -0 -0 0 -0 -0 -0 -0 -0 0 -0 -0 0 0 -0 -1 -0 -0 -0 -0 -2 -3 -2 nan
nan -0 -0 -1 -0 -0 -1 -1 -0 -0 -1 -1 -0 -0 -0 -0 -0 -0 -0 0 -0 -0 0 -0 -0 0 0 -1 0 1 0 -0 0 -0 -2 -1 -1 -0 0 0 -1 -1 -1 -1 nan
nan -0 -1 -0 -0 0 -0 -1 -1 -0 -0 -1 -0 -0 -0 -0 -0 -0 -0 -0 -0 -0 -0 -0 0 0 0 -0 -0 -1 -0 0 0 -1 -0 -0 -0 -0 0 0 -0 -3 -2 -1 nan
nan 0 -0 -0 -0 0 0 -0 -0 -0 -0 -0 -0 -1 -0 -0 -0 -0 -0 -0 -0 -1 -0 0 0 -0 -0 -1 -0 -0 -0 -1 -1 -0 0 -0 1 0 0 -1 -3 -4 2 -0 nan
nan 0 0 -0 -0 -0 0 -0 -0 -0 -0 0 -0 -1 -0 -0 -0 -0 -0 -0 -0 -0 -0 -0 -0 0 -0 -1 -0 -0 -1 -1 -0 0 -0 -1 0 -0 -1 -0 0 -1 -1 -2 nan
nan nan nan nan nan nan nan nan nan nan nan nan nan nan nan nan nan nan nan nan nan nan nan nan nan nan nan nan nan nan nan nan nan nan nan nan nan nan nan nan nan nan nan nan nan
Wind_Speed
16 16 16 16 16 16 17 17 17 17 17 16 16 16 17 18 18 22 28 22 16 18 14 28 24 23 23 15 7 4 3 3 4 2 3 15 5 13 6 15 7 7 15 30 36
19 19 18 18 17 17 17 18 17 17 17 17 17 16 17 18 21 26 22 22 20 20 23 34 31 29 12 10 7 4 3 6 5 4 6 12 14 15 6 15 3 7 16 37 37
21 21 21 20 19 19 18 18 18 18 17 17 16 17 16 16 20 7 1 7 21 25 22 29 25 22 11 9 10 7 6 5 5 4 9 11 6 13 11 8 15 24 34 42 40
23 23 23 23 22 21 20 19 18 18 18 18 16 16 15 12 6 2 4 5 18 29 30 28 28 12 8 7 11 4 15 11 7 2 9 10 12 6 18 5 22 22 45 46 42
24 23 24 25 24 23 23 23 21 18 18 18 17 16 14 10 28 14 7 2 21 34 34 31 32 16 7 7 9 6 6 9 16 10 9 14 18 12 21 15 11 29 46 46 42
25 24 25 25 24 25 25 26 24 20 18 18 18 16 14 8 13 9 19 15 22 36 34 33 23 23 1 5 8 8 13 20 19 24 11 14 18 18 20 14 20 37 41 43 42
28 28 28 27 28 27 26 26 25 21 19 18 18 17 19 29 9 6 13 16 19 36 33 34 17 26 6 3 11 16 9 7 10 8 9 17 5 21 14 25 29 33 34 37 38
30 30 31 31 32 32 28 26 21 20 20 15 14 17 13 9 24 27 16 20 16 27 29 26 28 21 7 2 6 4 2 2 4 5 6 19 21 21 24 30 28 30 32 34 37
32 33 32 32 33 36 25 21 15 15 14 8 9 12 9 10 22 23 26 24 22 21 24 12 26 12 5 2 4 3 4 5 6 7 2 12 7 15 30 32 28 31 33 35 34
33 34 35 33 32 26 27 13 5 5 2 3 5 5 15 6 4 13 27 33 24 26 18 14 8 5 2 5 11 6 4 3 5 1 5 7 6 8 28 31 31 32 32 33 36
33 33 33 33 30 20 25 6 7 2 6 11 4 6 2 10 8 8 16 29 16 21 8 11 4 14 11 7 5 5 5 4 3 3 6 10 3 6 22 23 25 30 31 34 42
33 34 34 30 31 15 12 9 13 13 16 21 31 38 27 6 3 14 16 18 13 7 8 4 20 11 9 8 9 6 5 7 4 7 2 3 9 9 14 27 35 33 32 36 40
35 34 35 32 27 16 5 12 19 22 6 15 21 23 29 31 20 20 23 16 7 9 17 19 7 12 13 7 11 6 12 6 4 3 1 4 6 5 13 9 23 27 35 35 36
34 34 34 35 12 28 7 13 21 13 3 7 6 6 13 12 8 38 29 21 6 21 9 7 8 19 8 13 10 9 8 5 7 4 4 4 5 5 8 20 16 24 31 35 38
33 33 34 34 32 26 13 15 16 2 6 1 3 7 14 11 0 15 33 20 10 9 9 11 12 14 16 11 8 8 9 9 6 5 3 4 1 6 7 11 17 22 31 36 42
35 32 36 30 24 20 22 15 1 3 9 3 4 1 5 6 3 5 19 12 12 5 1 8 7 13 11 7 10 7 4 5 5 4 6 9 8 5 7 14 17 21 29 35 39
34 32 34 12 25 24 19 5 3 5 7 5 4 5 4 3 3 5 11 15 11 8 11 6 13 3 7 7 5 6 8 2 2 4 9 8 7 14 9 14 20 24 35 39 43
33 32 24 9 24 27 7 3 5 2 3 4 5 8 2 7 3 5 10 17 6 5 7 11 7 17 6 10 10 8 10 6 8 5 5 7 9 6 13 17 28 32 43 43 40
34 31 12 23 26 22 8 1 5 2 6 8 7 4 5 5 2 3 3 10 9 5 7 8 10 4 10 5 17 6 10 9 4 1 2 5 7 6 6 9 14 26 29 29 38
34 27 18 23 24 10 4 4 5 6 12 5 3 5 6 7 6 6 5 7 10 7 5 4 1 6 18 7 9 11 9 4 1 6 6 4 4 6 8 14 14 10 22 34 38
26 12 18 24 10 6 2 5 7 19 16 6 5 5 4 5 4 5 5 6 11 9 8 6 3 3 9 11 19 4 6 3 6 6 6 0 7 8 10 13 15 17 30 38 40
14 4 19 17 9 4 4 9 12 14 15 5 5 3 2 4 4 5 4 4 14 8 4 2 2 7 6 2 7 22 12 8 6 10 5 4 9 3 10 9 13 18 29 37 36
18 6 10 14 4 4 7 7 5 11 9 7 5 4 4 4 3 5 5 3 17 9 4 6 2 2 5 6 2 5 10 8 14 2 16 8 8 14 3 8 15 19 23 20 26
8 4 7 6 5 3 5 5 8 10 4 11 6 6 5 5 4 3 6 6 11 7 8 2 2 3 4 1 4 6 5 9 15 13 15 18 11 4 6 8 9 21 28 26 22
4 2 2 4 4 6 3 4 8 6 7 6 4 10 6 3 5 4 6 4 6 8 6 4 0 2 2 11 6 11 14 12 12 21 15 17 21 11 8 10 17 34 29 22 20
5 4 3 7 10 9 4 3 5 7 3 4 4 12 13 3 2 3 6 3 3 6 5 4 1 1 3 9 12 11 13 15 14 11 8 20 14 8 19 27 18 27 25 28 29
9 12 7 3 3 3 2 3 6 11 11 4 7 10 10 3 11 16 15 16 11 1 3 3 3 2 4 4 10 13 9 14 8 8 11 16 10 8 9 11 18 32 37 36 38
Wind_Direction
337 333 329 325 321 316 311 306 304 300 298 296 294 292 292 290 284 278 268 264 252 231 199 178 174 174 167 176 170 176 53 291 259 177 270 152 122 154 166 148 164 167 165 164 159
338 335 328 324 320 316 313 310 304 301 298 295 293 290 291 295 293 282 288 262 238 205 187 179 169 168 170 180 194 168 152 233 208 194 200 183 145 160 132 157 183 150 155 159 162
337 335 332 323 318 315 311 306 303 301 295 292 292 292 292 298 305 281 247 239 210 199 199 186 166 160 183 171 194 183 212 220 263 76 178 148 154 165 149 198 198 169 161 164 167
341 338 336 331 320 313 308 302 297 294 293 290 287 287 289 285 268 233 319 256 195 190 191 180 170 180 181 192 197 219 228 242 248 112 136 161 174 210 185 208 208 197 170 168 174
345 339 336 333 327 319 312 303 295 290 287 285 284 282 280 253 248 248 272 350 187 183 190 183 174 192 169 193 189 245 265 251 261 269 223 194 185 190 213 245 201 171 170 174 178
348 344 338 336 329 324 317 306 297 286 280 277 276 270 255 241 274 259 232 247 195 182 185 189 195 191 219 210 185 208 246 260 272 264 241 183 201 184 228 198 178 171 174 179 184
351 348 344 341 337 329 319 308 296 283 280 276 265 254 243 248 253 256 214 208 196 186 185 192 190 189 207 265 266 258 282 291 243 227 232 200 199 214 214 180 175 175 180 184 192
349 346 343 341 341 335 326 308 293 286 286 278 249 232 243 260 230 227 191 187 187 194 194 194 209 200 220 260 345 334 146 246 280 140 228 161 227 218 196 174 175 180 184 192 197
345 343 341 340 341 338 341 320 300 291 289 271 205 200 252 242 233 217 191 177 181 192 207 217 220 225 208 153 354 333 239 223 315 207 142 179 251 196 189 176 178 185 190 193 200
345 343 340 340 344 348 355 340 337 309 260 236 214 219 232 218 185 203 210 214 206 211 204 196 186 168 126 155 209 207 212 236 252 250 163 199 263 184 175 177 181 187 195 194 203
346 343 340 339 345 345 354 350 333 301 295 228 223 251 222 184 188 211 195 191 182 168 157 178 175 214 196 181 188 195 211 196 270 283 142 220 255 201 175 188 184 191 197 199 208
350 347 340 340 340 359 19 61 38 339 297 273 254 249 235 198 300 198 190 161 173 171 133 119 222 205 178 194 194 207 245 252 289 273 120 216 242 195 185 199 192 188 199 205 211
351 349 341 341 338 0 26 13 348 332 251 284 243 244 241 234 228 220 189 174 150 154 185 201 222 172 196 178 197 209 217 197 208 336 300 91 307 179 209 204 207 205 202 208 212
352 350 344 338 341 336 336 328 336 322 311 268 230 240 178 184 228 223 203 175 164 192 131 209 225 192 179 210 179 214 187 153 167 124 216 148 269 257 201 208 204 202 203 209 218
352 351 342 345 329 333 315 318 332 148 317 194 172 159 173 192 213 202 197 201 172 165 150 207 180 182 206 206 163 220 154 182 168 190 173 219 276 254 155 208 216 214 209 208 215
348 350 342 345 337 327 305 312 324 54 248 343 79 85 129 241 286 85 181 198 179 128 332 192 197 187 197 170 177 160 98 61 52 111 242 212 177 238 186 209 216 227 220 214 216
347 344 347 1 359 341 321 314 80 199 331 5 341 10 342 302 232 140 192 191 169 149 196 188 216 189 155 167 171 141 103 289 298 197 239 174 195 230 209 203 204 214 220 219 218
345 341 347 14 353 355 336 70 219 244 332 340 337 307 140 347 9 331 163 193 215 127 161 179 219 205 186 191 185 184 160 162 203 219 228 118 235 241 202 211 219 223 221 218 217
343 347 30 352 347 343 353 195 218 342 341 332 315 45 348 350 356 347 7 207 198 182 163 173 236 227 182 160 172 193 194 176 80 272 25 219 309 307 188 212 213 225 229 224 220
343 344 10 349 338 330 63 277 291 360 351 343 8 34 11 334 24 25 26 335 340 13 353 222 209 205 203 129 192 162 160 141 34 196 244 275 248 223 202 202 201 216 219 228 226
347 342 358 346 6 43 87 287 301 345 340 335 343 339 19 1 344 355 356 47 1 340 9 8 124 310 127 200 195 154 179 111 148 167 203 24 253 210 210 219 214 210 212 228 231
353 343 2 5 49 23 339 315 305 344 357 323 335 22 19 2 346 359 48 38 0 323 21 357 94 217 200 201 226 214 199 156 162 222 248 181 245 210 231 203 200 220 230 237 240
339 305 12 24 58 343 318 299 330 344 336 338 333 19 351 17 8 23 17 63 12 12 36 332 358 80 48 303 164 192 214 184 216 114 219 200 243 245 206 173 233 247 254 235 239
341 349 342 39 75 9 333 304 337 349 336 340 313 40 6 11 9 357 2 13 339 16 12 56 90 103 217 300 355 306 275 204 207 225 232 231 260 275 289 248 246 241 244 237 236
337 317 340 317 335 327 304 273 318 350 345 11 342 15 356 351 348 23 3 346 327 11 14 74 85 349 246 285 252 247 255 264 233 225 221 240 240 238 240 234 232 243 239 236 250
315 313 315 280 288 304 317 307 327 340 292 330 343 340 333 292 51 337 8 333 276 339 22 353 264 121 278 267 296 281 264 256 248 240 258 263 254 212 216 227 234 251 246 242 244
316 292 267 262 285 286 260 283 310 322 292 200 321 321 322 49 315 286 266 255 249 295 329 312 161 71 262 305 320 297 254 234 231 201 211 242 230 212 238 219 220 237 244 246 250
Height
1514 1511 1508 1506 1503 1501 1498 1497 1495 1493 1492 1491 1490 1489 1487 1486 1485 1482 1478 1480 1484 1487 1487 1491 1496 1500 1505 1507 1508 1509 1515 1517 1507 1503 1497 1494 1498 1502 1505 1506 1508 1509 1510 1514 1520
1512 1509 1506 1503 1500 1498 1496 1493 1491 1490 1489 1488 1487 1485 1484 1482 1479 1474 1473 1474 1479 1482 1484 1486 1491 1497 1504 1506 1508 1509 1516 1505 1494 1493 1493 1494 1496 1501 1504 1507 1509 1510 1512 1516 1520
1510 1507 1504 1500 1497 1495 1492 1490 1488 1486 1485 1484 1483 1482 1481 1479 1476 1467 1467 1468 1471 1477 1483 1488 1493 1498 1502 1503 1504 1504 1505 1494 1490 1489 1488 1494 1501 1501 1503 1507 1501 1502 1508 1514 1520
1508 1505 1501 1497 1494 1491 1488 1486 1484 1482 1480 1479 1479 1478 1477 1478 1479 1464 1465 1464 1466 1474 1481 1486 1492 1496 1497 1498 1498 1501 1494 1492 1490 1489 1491 1494 1498 1501 1501 1499 1499 1502 1502 1511 1517
1506 1503 1499 1494 1490 1487 1484 1480 1478 1477 1476 1474 1474 1474 1474 1473 1460 1463 1464 1464 1465 1469 1475 1480 1486 1490 1494 1493 1495 1495 1486 1489 1485 1488 1490 1492 1493 1496 1496 1501 1500 1503 1508 1510 1516
1504 1500 1496 1491 1487 1484 1479 1475 1472 1470 1470 1470 1469 1470 1470 1468 1458 1459 1460 1462 1462 1467 1472 1477 1480 1486 1490 1491 1492 1486 1486 1484 1482 1481 1486 1488 1489 1494 1491 1498 1501 1503 1507 1510 1513
1502 1498 1493 1488 1483 1479 1474 1469 1465 1462 1463 1463 1463 1464 1463 1453 1455 1456 1456 1461 1462 1464 1470 1475 1479 1485 1485 1488 1486 1484 1487 1483 1477 1477 1479 1481 1493 1486 1488 1493 1501 1505 1509 1512 1514
1500 1496 1490 1485 1480 1474 1468 1461 1458 1456 1455 1456 1457 1458 1452 1447 1447 1452 1454 1458 1464 1468 1472 1476 1480 1483 1483 1484 1483 1485 1485 1492 1472 1472 1474 1479 1486 1476 1485 1489 1498 1503 1506 1511 1514
1497 1492 1487 1482 1476 1469 1463 1456 1453 1452 1450 1450 1452 1454 1446 1440 1440 1445 1451 1454 1461 1467 1473 1477 1479 1481 1482 1487 1497 1493 1500 1492 1481 1469 1471 1477 1480 1470 1478 1484 1493 1499 1502 1505 1512
1495 1489 1483 1478 1473 1466 1460 1455 1452 1450 1450 1449 1450 1456 1439 1436 1436 1439 1445 1452 1459 1464 1471 1475 1477 1479 1483 1489 1498 1498 1497 1488 1484 1470 1471 1476 1475 1471 1475 1481 1487 1494 1499 1502 1505
1492 1486 1481 1475 1470 1465 1460 1455 1457 1453 1450 1442 1439 1433 1430 1433 1434 1436 1439 1446 1454 1458 1467 1468 1478 1475 1475 1477 1479 1483 1485 1485 1477 1468 1472 1476 1475 1476 1476 1480 1485 1489 1495 1496 1497
1491 1484 1478 1473 1468 1465 1462 1460 1466 1468 1449 1434 1430 1428 1428 1429 1432 1432 1435 1440 1446 1453 1457 1470 1463 1465 1469 1474 1476 1479 1484 1487 1477 1469 1470 1473 1475 1473 1473 1469 1472 1479 1489 1490 1493
1489 1483 1475 1470 1466 1464 1463 1463 1464 1461 1455 1421 1415 1414 1416 1423 1425 1424 1428 1431 1436 1446 1449 1454 1454 1459 1465 1470 1476 1478 1481 1481 1482 1472 1470 1474 1482 1475 1471 1472 1477 1479 1479 1486 1490
1488 1482 1475 1466 1467 1463 1462 1462 1461 1457 1457 1423 1410 1407 1410 1413 1416 1413 1420 1425 1430 1437 1448 1454 1449 1452 1460 1464 1466 1485 1468 1471 1476 1484 1498 1474 1504 1476 1468 1469 1469 1473 1476 1479 1484
1486 1481 1474 1470 1465 1463 1462 1459 1458 1457 1466 1406 1406 1406 1406 1408 1406 1404 1412 1419 1424 1427 1438 1441 1442 1450 1455 1450 1459 1464 1460 1468 1471 1480 1484 1481 1494 1474 1465 1472 1466 1464 1467 1470 1475
1484 1479 1472 1468 1463 1460 1456 1456 1456 1464 1459 1408 1404 1406 1409 1405 1403 1404 1409 1416 1418 1426 1427 1433 1431 1436 1440 1444 1448 1453 1460 1471 1479 1488 1499 1479 1485 1479 1469 1457 1457 1456 1460 1463 1468
1482 1476 1471 1466 1463 1457 1453 1454 1463 1463 1416 1417 1416 1412 1411 1406 1402 1403 1409 1410 1415 1437 1438 1432 1431 1428 1430 1445 1446 1452 1473 1502 1503 1502 1484 1468 1480 1450 1443 1439 1440 1443 1448 1451 1457
1480 1473 1468 1466 1463 1457 1453 1456 1460 1431 1428 1422 1418 1414 1412 1411 1408 1406 1406 1411 1407 1412 1428 1439 1449 1426 1423 1429 1443 1453 1466 1496 1507 1502 1481 1472 1466 1448 1429 1431 1433 1433 1432 1440 1449
1477 1471 1468 1467 1463 1459 1458 1462 1446 1439 1434 1430 1421 1421 1421 1416 1413 1408 1413 1407 1406 1406 1423 1436 1432 1408 1411 1418 1426 1451 1457 1452 1478 1478 1487 1470 1447 1429 1424 1427 1427 1428 1430 1435 1438
1477 1470 1469 1465 1461 1459 1462 1462 1450 1441 1438 1433 1433 1429 1432 1426 1421 1419 1417 1426 1418 1412 1412 1412 1429 1409 1408 1414 1419 1428 1436 1464 1483 1486 1491 1470 1456 1444 1429 1421 1422 1426 1425 1424 1427
1477 1472 1470 1465 1460 1460 1469 1467 1454 1447 1445 1441 1436 1435 1433 1433 1428 1426 1424 1429 1424 1418 1415 1420 1418 1414 1409 1414 1414 1428 1435 1444 1448 1469 1475 1484 1450 1421 1416 1414 1410 1410 1411 1413 1417
1480 1479 1472 1466 1467 1470 1472 1468 1460 1451 1448 1443 1438 1436 1434 1433 1432 1429 1431 1433 1431 1425 1430 1427 1431 1425 1415 1402 1401 1403 1415 1431 1449 1459 1463 1463 1434 1400 1400 1398 1403 1404 1406 1408 1411
1483 1479 1475 1471 1481 1480 1473 1466 1461 1459 1454 1448 1443 1441 1439 1438 1438 1435 1435 1435 1433 1430 1434 1431 1437 1437 1424 1411 1403 1411 1408 1414 1415 1435 1434 1450 1423 1398 1398 1402 1403 1403 1401 1403 1405
1488 1485 1478 1477 1480 1481 1479 1471 1463 1459 1457 1457 1451 1444 1444 1443 1441 1441 1439 1436 1434 1433 1432 1431 1441 1441 1438 1430 1428 1424 1408 1407 1412 1421 1421 1416 1419 1406 1401 1401 1398 1397 1396 1398 1400
1492 1489 1487 1486 1481 1480 1479 1474 1467 1465 1461 1459 1454 1453 1452 1451 1448 1446 1442 1441 1437 1436 1435 1437 1441 1438 1435 1429 1426 1421 1416 1411 1412 1405 1411 1407 1407 1406 1404 1401 1395 1391 1390 1393 1394
1494 1492 1490 1485 1482 1479 1475 1474 1470 1467 1466 1459 1459 1458 1454 1454 1452 1452 1452 1447 1445 1441 1441 1442 1443 1442 1438 1424 1416 1417 1409 1403 1402 1404 1406 1399 1401 1390 1387 1387 1388 1387 1387 1387 1387
1494 1491 1489 1482 1480 1479 1476 1472 1469 1469 1461 1460 1461 1461 1456 1452 1452 1450 1449 1447 1446 1448 1448 1447 1444 1445 1441 1428 1423 1411 1392 1393 1392 1388 1391 1396 1390 1386 1383 1379 1380 1381 1382 1382 1382